• In Russia
  • List of Countries
  • For 7 days
  • Water Temperature
  • Satellite Maps
  • Weather Map
  • Weather Widgets
  • user-avatar
    Login

    Hourly Weather Bukavu

    Today, 21 March, Thursday

    Time Temperature Precipitation Wind Pressure Humidity
    00:00 +23°C° 0 mm 0 mps 685 mmHg 54%
    01:00 +22°C° 0 mm 0 mps 685 mmHg 57%
    02:00 +22°C° 0 mm 0 mps 685 mmHg 60%
    03:00 +21°C° 0 mm 0 mps 685 mmHg 60%
    04:00 +21°C° 0 mm 0 mps 685 mmHg 61%
    05:00 +21°C° 0 mm 0 mps 685 mmHg 61%
    06:00 +25°C° 0 mm 1 mps 686 mmHg 57%
    07:00 +27°C° 0 mm 1 mps 687 mmHg 52%
    08:00 +28°C° 0 mm 1 mps 688 mmHg 48%
    09:00 +32°C° 0 mm 1 mps 688 mmHg 40%
    10:00 +35°C° 0 mm 1 mps 689 mmHg 33%
    11:00 +40°C° 0 mm 1 mps 689 mmHg 25%
    12:00 +37°C° 0 mm 1 mps 688 mmHg 28%
    13:00 +36°C° 0 mm 1 mps 687 mmHg 31%
    14:00 +34°C° 0 mm 1 mps 686 mmHg 33%
    15:00 +34°C° 0 mm 1 mps 685 mmHg 33%
    16:00 +34°C° 0 mm 1 mps 685 mmHg 34%
    17:00 +34°C° 0 mm 1 mps 685 mmHg 34%
    18:00 +32°C° 0 mm 1 mps 685 mmHg 39%
    19:00 +30°C° 0 mm 1 mps 685 mmHg 44%
    20:00 +28°C° 0 mm 1 mps 685 mmHg 49%
    21:00 +27°C° 0 mm 1 mps 685 mmHg 54%
    22:00 +26°C° 0 mm 1 mps 685 mmHg 58%
    23:00 +25°C° 0 mm 1 mps 685 mmHg 63%

    Tomorrow, 22 March, Friday

    Time Temperature Precipitation Wind Pressure Humidity
    00:00 +24°C° 0 mm 1 mps 685 mmHg 67%
    01:00 +24°C° 0 mm 1 mps 685 mmHg 71%
    02:00 +23°C° 0 mm 1 mps 685 mmHg 75%
    03:00 +24°C° 0 mm 1 mps 685 mmHg 76%
    04:00 +24°C° 0 mm 1 mps 686 mmHg 76%
    05:00 +24°C° 0 mm 1 mps 686 mmHg 76%
    06:00 +25°C° 0 mm 1 mps 687 mmHg 74%
    07:00 +26°C° 0 mm 2 mps 687 mmHg 73%
    08:00 +27°C° 0 mm 2 mps 688 mmHg 71%
    09:00 +31°C° 0 mm 2 mps 688 mmHg 57%
    10:00 +35°C° 0 mm 2 mps 689 mmHg 44%
    11:00 +37°C° 0 mm 1 mps 689 mmHg 31%
    12:00 +36°C° 0 mm 1 mps 688 mmHg 31%
    13:00 +36°C° 0 mm 1 mps 687 mmHg 31%
    14:00 +33°C° 0 mm 0 mps 685 mmHg 31%
    15:00 +32°C° 0.1 mm 0 mps 685 mmHg 37%
    16:00 +32°C° 0.1 mm 1 mps 684 mmHg 44%
    17:00 +31°C° 0.1 mm 1 mps 684 mmHg 50%
    18:00 +29°C° 0 mm 1 mps 684 mmHg 54%
    19:00 +28°C° 0 mm 1 mps 685 mmHg 58%
    20:00 +24°C° 0 mm 0 mps 685 mmHg 62%
    21:00 +24°C° 0 mm 0 mps 685 mmHg 62%
    22:00 +24°C° 0 mm 0 mps 686 mmHg 62%
    23:00 +25°C° 0 mm 0 mps 687 mmHg 63%

    Day after tomorrow, 23 March, Saturday

    Time Temperature Precipitation Wind Pressure Humidity
    00:00 +24°C° 0 mm 0 mps 686 mmHg 66%
    01:00 +23°C° 0 mm 0 mps 686 mmHg 68%
    02:00 +23°C° 0 mm 0 mps 685 mmHg 71%
    03:00 +25°C° 0 mm 1 mps 685 mmHg 71%
    04:00 +25°C° 0 mm 1 mps 685 mmHg 71%
    05:00 +24°C° 0 mm 1 mps 685 mmHg 71%
    06:00 +24°C° 0 mm 1 mps 686 mmHg 71%
    07:00 +25°C° 0 mm 1 mps 686 mmHg 71%
    08:00 +25°C° 0 mm 2 mps 687 mmHg 71%
    09:00 +29°C° 0 mm 2 mps 688 mmHg 58%
    10:00 +32°C° 0 mm 2 mps 688 mmHg 45%
    11:00 +37°C° 0 mm 2 mps 689 mmHg 32%
    12:00 +37°C° 0 mm 1 mps 688 mmHg 29%
    13:00 +37°C° 0 mm 1 mps 686 mmHg 27%
    14:00 +36°C° 0 mm 0 mps 685 mmHg 25%
    15:00 +34°C° 0 mm 0 mps 685 mmHg 29%
    16:00 +35°C° 0 mm 1 mps 685 mmHg 32%
    17:00 +33°C° 0 mm 1 mps 684 mmHg 36%
    18:00 +32°C° 0 mm 1 mps 685 mmHg 39%
    19:00 +31°C° 0 mm 1 mps 685 mmHg 42%
    20:00 +28°C° 0 mm 0 mps 685 mmHg 44%
    21:00 +29°C° 0 mm 1 mps 686 mmHg 47%
    22:00 +29°C° 0 mm 1 mps 686 mmHg 50%
    23:00 +28°C° 0 mm 1 mps 686 mmHg 53%

    24 March, Sunday

    Time Temperature Precipitation Wind Pressure Humidity
    00:00 +27°C° 0 mm 1 mps 685 mmHg 57%
    01:00 +26°C° 0 mm 1 mps 685 mmHg 61%
    02:00 +25°C° 0 mm 1 mps 685 mmHg 64%
    03:00 +24°C° 0 mm 1 mps 685 mmHg 68%
    04:00 +23°C° 0 mm 1 mps 685 mmHg 73%
    05:00 +23°C° 0 mm 1 mps 685 mmHg 77%
    06:00 +24°C° 0 mm 1 mps 686 mmHg 72%
    07:00 +26°C° 0 mm 1 mps 687 mmHg 68%
    08:00 +27°C° 0 mm 1 mps 688 mmHg 63%
    09:00 +30°C° 0 mm 1 mps 688 mmHg 53%
    10:00 +33°C° 0 mm 1 mps 688 mmHg 44%
    11:00 +37°C° 0 mm 2 mps 689 mmHg 34%
    12:00 +34°C° 0.2 mm 1 mps 687 mmHg 45%
    13:00 +31°C° 0.2 mm 1 mps 686 mmHg 55%
    14:00 +29°C° 0.2 mm 1 mps 684 mmHg 66%
    15:00 +27°C° 2.4 mm 1 mps 684 mmHg 74%
    16:00 +26°C° 2.4 mm 1 mps 683 mmHg 82%
    17:00 +25°C° 2.4 mm 1 mps 683 mmHg 90%
    18:00 +24°C° 1 mm 1 mps 684 mmHg 93%
    19:00 +24°C° 1 mm 1 mps 685 mmHg 95%
    20:00 +23°C° 1 mm 2 mps 685 mmHg 97%
    21:00 +23°C° 0 mm 1 mps 686 mmHg 96%
    22:00 +23°C° 0 mm 1 mps 686 mmHg 96%
    23:00 +23°C° 0 mm 1 mps 686 mmHg 96%

    25 March, Monday

    Time Temperature Precipitation Wind Pressure Humidity
    00:00 +23°C° 0 mm 1 mps 686 mmHg 96%
    01:00 +22°C° 0 mm 1 mps 686 mmHg 96%
    02:00 +22°C° 0 mm 1 mps 685 mmHg 96%
    03:00 +22°C° 0 mm 1 mps 686 mmHg 97%
    04:00 +22°C° 0 mm 1 mps 686 mmHg 97%
    05:00 +21°C° 0 mm 1 mps 686 mmHg 98%
    06:00 +22°C° 0 mm 1 mps 687 mmHg 94%
    07:00 +23°C° 0 mm 1 mps 688 mmHg 91%
    08:00 +23°C° 0 mm 1 mps 689 mmHg 87%
    09:00 +26°C° 0 mm 2 mps 689 mmHg 73%
    10:00 +29°C° 0 mm 2 mps 689 mmHg 59%
    11:00 +32°C° 0 mm 2 mps 690 mmHg 45%
    12:00 +30°C° 0.3 mm 2 mps 688 mmHg 55%
    13:00 +29°C° 0.3 mm 2 mps 687 mmHg 65%
    14:00 +27°C° 0.3 mm 2 mps 685 mmHg 75%
    15:00 +28°C° 0 mm 2 mps 685 mmHg 67%
    16:00 +30°C° 0 mm 2 mps 685 mmHg 58%
    17:00 +31°C° 0 mm 1 mps 686 mmHg 50%
    18:00 +29°C° 0.7 mm 1 mps 686 mmHg 62%
    19:00 +26°C° 0.7 mm 1 mps 685 mmHg 75%
    20:00 +24°C° 0.7 mm 1 mps 685 mmHg 88%
    21:00 +23°C° 0.4 mm 1 mps 686 mmHg 90%
    22:00 +21°C° 0.4 mm 0 mps 687 mmHg 93%
    23:00 +21°C° 0.4 mm 0 mps 687 mmHg 96%

    26 March, Tuesday

    Time Temperature Precipitation Wind Pressure Humidity
    00:00 +21°C° 0.6 mm 0 mps 687 mmHg 96%
    01:00 +21°C° 0.6 mm 0 mps 687 mmHg 96%
    02:00 +23°C° 0.6 mm 1 mps 686 mmHg 97%
    03:00 +22°C° 0 mm 1 mps 687 mmHg 97%
    04:00 +22°C° 0 mm 1 mps 687 mmHg 97%
    05:00 +22°C° 0 mm 1 mps 687 mmHg 98%
    06:00 +23°C° 0 mm 1 mps 688 mmHg 94%
    07:00 +24°C° 0 mm 1 mps 688 mmHg 91%
    08:00 +25°C° 0 mm 1 mps 689 mmHg 87%
    09:00 +27°C° 0.3 mm 2 mps 689 mmHg 75%
    10:00 +29°C° 0.3 mm 2 mps 689 mmHg 63%
    11:00 +32°C° 0.3 mm 2 mps 690 mmHg 51%
    12:00 +31°C° 1 mm 2 mps 689 mmHg 56%
    13:00 +30°C° 1 mm 2 mps 688 mmHg 61%
    14:00 +29°C° 1 mm 1 mps 687 mmHg 67%
    15:00 +30°C° 0.2 mm 1 mps 687 mmHg 64%
    16:00 +30°C° 0.2 mm 2 mps 686 mmHg 62%
    17:00 +30°C° 0.2 mm 2 mps 686 mmHg 59%
    18:00 +28°C° 5 mm 2 mps 687 mmHg 72%
    19:00 +26°C° 5 mm 2 mps 687 mmHg 85%
    20:00 +23°C° 5 mm 1 mps 687 mmHg 98%
    21:00 +23°C° 2.4 mm 1 mps 688 mmHg 98%
    22:00 +23°C° 2.4 mm 1 mps 688 mmHg 98%
    23:00 +23°C° 2.4 mm 1 mps 688 mmHg 99%
    Show more